TimeHST,TemperatureF,Dew PointF,Humidity,Sea Level PressureIn,VisibilityMPH,Wind Direction,Wind SpeedMPH,Gust SpeedMPH,PrecipitationIn,Events,Conditions,WindDirDegrees,DateUTC
12:53 AM,64.0,52.0,65,29.98,10.0,NW,5.8,-,N/A,,Mostly Cloudy,310,2013-01-19 10:53:00
1:53 AM,64.0,52.0,65,29.99,10.0,North,8.1,-,N/A,,Mostly Cloudy,350,2013-01-19 11:53:00
2:53 AM,61.0,51.1,70,29.97,10.0,WNW,6.9,-,N/A,,Clear,290,2013-01-19 12:53:00
3:53 AM,62.1,52.0,70,29.98,10.0,NNW,6.9,-,N/A,,Scattered Clouds,330,2013-01-19 13:53:00
4:53 AM,62.1,51.1,67,29.97,10.0,NNW,8.1,-,N/A,,Partly Cloudy,340,2013-01-19 14:53:00
5:53 AM,60.1,50.0,69,29.98,10.0,NW,8.1,-,N/A,,Clear,320,2013-01-19 15:53:00
6:53 AM,60.1,50.0,69,29.99,10.0,West,6.9,-,N/A,,Clear,280,2013-01-19 16:53:00
7:53 AM,61.0,52.0,72,30.01,10.0,West,6.9,-,N/A,,Partly Cloudy,270,2013-01-19 17:53:00
8:53 AM,66.9,53.1,61,30.02,10.0,West,6.9,-,N/A,,Clear,270,2013-01-19 18:53:00
9:53 AM,73.0,54.0,51,30.03,10.0,North,15.0,-,N/A,,Clear,360,2013-01-19 19:53:00
10:53 AM,73.9,52.0,46,30.03,10.0,North,17.3,-,N/A,,Partly Cloudy,360,2013-01-19 20:53:00
11:53 AM,75.0,53.1,46,30.01,10.0,North,18.4,27.6,N/A,,Partly Cloudy,10,2013-01-19 21:53:00
12:53 PM,75.0,55.0,50,29.98,10.0,North,17.3,23.0,N/A,,Mostly Cloudy,360,2013-01-19 22:53:00
1:53 PM,75.0,54.0,48,29.96,10.0,North,23.0,26.5,N/A,,Clear,360,2013-01-19 23:53:00
2:53 PM,75.0,52.0,44,29.95,10.0,North,16.1,24.2,N/A,,Clear,360,2013-01-20 00:53:00
3:53 PM,73.9,52.0,46,29.96,10.0,North,15.0,25.3,N/A,,Clear,350,2013-01-20 01:53:00
4:53 PM,72.0,55.9,57,29.98,10.0,North,17.3,24.2,N/A,,Clear,10,2013-01-20 02:53:00
5:53 PM,70.0,53.1,55,30.01,10.0,North,12.7,-,N/A,,Clear,360,2013-01-20 03:53:00
6:53 PM,68.0,53.1,59,30.02,10.0,North,9.2,-,N/A,,Clear,350,2013-01-20 04:53:00
7:53 PM,66.9,54.0,63,30.05,10.0,North,11.5,-,N/A,,Scattered Clouds,350,2013-01-20 05:53:00
8:53 PM,66.0,53.1,63,30.06,10.0,North,6.9,-,N/A,,Mostly Cloudy,350,2013-01-20 06:53:00
9:53 PM,66.9,54.0,63,30.08,10.0,North,10.4,-,N/A,,Overcast,350,2013-01-20 07:53:00
10:53 PM,66.0,51.1,59,30.07,10.0,NNW,6.9,-,N/A,,Overcast,340,2013-01-20 08:53:00
11:53 PM,66.0,52.0,60,30.06,10.0,NNW,8.1,-,N/A,,Overcast,330,2013-01-20 09:53:00